sat.trackr.live / text

‹ back to catalog

STARLINK-35335

NORAD 66180 · 2025-243D

PAYLOAD ACTIVE UNKNOWN

§ Identity

Operator
Country
US
Launch date
2025-10-26
Launch site
AFETR
Launch vehicle
Mass (kg)
RCS (m²)

Purposes: comms

External: N2YO · Heavens-Above · Gunter

§ Orbital elements

Epoch: 2026-05-24T23:49:24.286944Z

Period
94.11 min
Inclination
53.1544°
Eccentricity
0.0001354
Mean motion
15.30201624 rev/d
Perigee alt
474.3 km
Apogee alt
476.1 km
Semi-major
6,853.3 km
B*
7.4679e-4
RAAN
251.0082°
Arg perigee
86.7625°
Mean anomaly
273.3531°
Rev number
3,233

§ Raw data

STARLINK-353351 66180U 25243D   26144.99264221  .00021825  00000+0  74679-3 0  99922 66180  53.1544 251.0082 0001354  86.7625 273.3531 15.30201624 32339

JSON: /api/v1/satellites/66180 · /tle

For live sub-satellite position, see the globe view (requires WebGL).

§ Visibility from observer

Set your observer location to see the next 7 days of passes ≥ 10°. The values pass through the URL so the page stays shareable.

No JS? Fill the form by hand. The geolocation button needs JavaScript.